Location: ??????
(56.0120°N, 39.1740°E)
Time: 23:05:43
(UTC+00:00)

Spot 2 Rocket - Pass Details

Date: 14 April 2026
Orbit: 751 x 766 km, 98.3° (Epoch: 13 May)

Event Time Altitude Azimuth Distance (km) Brightness Sun altitude
Exits shadow 17:56:27 10° 163° (SSE) 2,307 5.5 -11.7°
Reaches altitude 10° 17:56:31 10° 163° (SSE) 2,281 5.5 -11.7°
Maximum altitude 18:01:33 87° 253° (WSW) 764 3.5 -12.3°
Drops below altitude 10° 18:06:37 10° 344° (NNW) 2,291 6.9 -12.8°
Sets 18:08:55 0° 344° (NNW) 3,219 7.7 -13.0°
